Year,Month,Day,Hour,Minute,Value (Times are PST for windgust in km/hr)
2010,10,25,00,00,1.60
2010,10,25,00,18,3.20
2010,10,25,00,19,1.60
2010,10,25,00,20,3.20
2010,10,25,00,21,1.60
2010,10,25,00,22,1.60
2010,10,25,00,24,6.40
2010,10,25,00,25,3.20
2010,10,25,00,26,4.80
2010,10,25,00,27,1.60
2010,10,25,00,28,3.20
2010,10,25,00,29,3.20
2010,10,25,00,30,4.80
2010,10,25,00,31,6.40
2010,10,25,00,32,3.20
2010,10,25,00,33,3.20
2010,10,25,00,34,3.20
2010,10,25,00,35,3.20
2010,10,25,00,36,1.60
2010,10,25,00,37,4.80
2010,10,25,00,38,4.80
2010,10,25,00,39,6.40
2010,10,25,00,40,6.40
2010,10,25,00,41,4.80
2010,10,25,00,42,4.80
2010,10,25,00,43,4.80
2010,10,25,00,44,3.20
2010,10,25,00,45,1.60
2010,10,25,00,49,1.60
2010,10,25,00,50,1.60
2010,10,25,00,51,1.60
2010,10,25,00,52,1.60
2010,10,25,00,53,1.60
2010,10,25,00,56,3.20
2010,10,25,00,57,3.20
2010,10,25,00,58,3.20
2010,10,25,00,59,3.20
2010,10,25,01,00,4.80
2010,10,25,01,01,1.60
2010,10,25,01,02,1.60
2010,10,25,01,03,4.80
2010,10,25,01,04,4.80
2010,10,25,01,05,3.20
2010,10,25,01,06,1.60
2010,10,25,01,07,3.20
2010,10,25,01,08,3.20
2010,10,25,01,09,4.80
2010,10,25,01,10,1.60
2010,10,25,01,11,4.80
2010,10,25,01,12,3.20
2010,10,25,01,15,3.20
2010,10,25,01,16,1.60
2010,10,25,01,17,4.80
2010,10,25,01,18,4.80
2010,10,25,01,19,6.40
2010,10,25,01,20,4.80
2010,10,25,01,21,4.80
2010,10,25,01,22,8.10
2010,10,25,01,23,4.80
2010,10,25,01,24,4.80
2010,10,25,01,25,4.80
2010,10,25,01,26,4.80
2010,10,25,01,27,3.20
2010,10,25,01,28,4.80
2010,10,25,01,29,4.80
2010,10,25,01,30,3.20
2010,10,25,01,31,3.20
2010,10,25,01,32,3.20
2010,10,25,01,33,3.20
2010,10,25,01,34,1.60
2010,10,25,01,35,3.20
2010,10,25,01,36,4.80
2010,10,25,01,37,4.80
2010,10,25,01,38,6.40
2010,10,25,01,39,8.10
2010,10,25,01,40,6.40
2010,10,25,01,41,6.40
2010,10,25,01,42,4.80
2010,10,25,01,43,4.80
2010,10,25,01,44,6.40
2010,10,25,01,45,6.40
2010,10,25,01,46,6.40
2010,10,25,01,47,4.80
2010,10,25,01,48,4.80
2010,10,25,01,49,4.80
2010,10,25,01,50,6.40
2010,10,25,01,51,4.80
2010,10,25,01,52,3.20
2010,10,25,01,53,4.80
2010,10,25,01,54,6.40
2010,10,25,01,55,4.80
2010,10,25,01,56,4.80
2010,10,25,01,57,4.80
2010,10,25,01,58,6.40
2010,10,25,01,59,8.10
2010,10,25,02,00,8.10
2010,10,25,02,01,8.10
2010,10,25,02,02,9.60
2010,10,25,02,03,9.60
2010,10,25,02,04,8.10
2010,10,25,02,05,6.40
2010,10,25,02,06,6.40
2010,10,25,02,07,8.10
2010,10,25,02,08,8.10
2010,10,25,02,09,4.80
2010,10,25,02,10,6.40
2010,10,25,02,11,6.40
2010,10,25,02,12,6.40
2010,10,25,02,13,8.10
2010,10,25,02,14,8.10
2010,10,25,02,15,4.80
2010,10,25,02,16,4.80
2010,10,25,02,17,8.10
2010,10,25,02,18,8.10
2010,10,25,02,19,4.80
2010,10,25,02,20,6.40
2010,10,25,02,21,8.10
2010,10,25,02,22,8.10
2010,10,25,02,23,3.20
2010,10,25,02,24,6.40
2010,10,25,02,25,6.40
2010,10,25,02,26,6.40
2010,10,25,02,27,4.80
2010,10,25,02,28,3.20
2010,10,25,02,29,4.80
2010,10,25,02,30,6.40
2010,10,25,02,31,8.10
2010,10,25,02,32,8.10
2010,10,25,02,33,6.40
2010,10,25,02,34,8.10
2010,10,25,02,35,6.40
2010,10,25,02,36,6.40
2010,10,25,02,37,9.60
2010,10,25,02,38,9.60
2010,10,25,02,39,9.60
2010,10,25,02,40,8.10
2010,10,25,02,41,6.40
2010,10,25,02,42,4.80
2010,10,25,02,43,4.80
2010,10,25,02,44,6.40
2010,10,25,02,45,9.60
2010,10,25,02,46,8.10
2010,10,25,02,47,8.10
2010,10,25,02,48,9.60
2010,10,25,02,49,8.10
2010,10,25,02,50,9.60
2010,10,25,02,51,9.60
2010,10,25,02,52,9.60
2010,10,25,02,53,8.10
2010,10,25,02,54,8.10
2010,10,25,02,55,8.10
2010,10,25,02,56,6.40
2010,10,25,02,57,6.40
2010,10,25,02,58,9.60
2010,10,25,02,59,8.10
2010,10,25,03,00,6.40
2010,10,25,03,01,6.40
2010,10,25,03,02,3.20
2010,10,25,03,03,9.60
2010,10,25,03,04,4.80
2010,10,25,03,05,6.40
2010,10,25,03,06,4.80
2010,10,25,03,07,6.40
2010,10,25,03,08,8.10
2010,10,25,03,09,9.60
2010,10,25,03,10,8.10
2010,10,25,03,11,8.10
2010,10,25,03,12,6.40
2010,10,25,03,13,4.80
2010,10,25,03,14,8.10
2010,10,25,03,15,6.40
2010,10,25,03,16,6.40
2010,10,25,03,17,6.40
2010,10,25,03,18,6.40
2010,10,25,03,19,6.40
2010,10,25,03,20,4.80
2010,10,25,03,21,4.80
2010,10,25,03,22,1.60
2010,10,25,03,23,1.60
2010,10,25,03,24,1.60
2010,10,25,03,25,3.20
2010,10,25,03,26,3.20
2010,10,25,03,27,4.80
2010,10,25,03,28,3.20
2010,10,25,03,29,3.20
2010,10,25,03,30,4.80
2010,10,25,03,31,4.80
2010,10,25,03,32,4.80
2010,10,25,03,33,6.40
2010,10,25,03,34,4.80
2010,10,25,03,35,3.20
2010,10,25,03,36,3.20
2010,10,25,03,37,1.60
2010,10,25,03,38,3.20
2010,10,25,03,39,3.20
2010,10,25,03,40,4.80
2010,10,25,03,41,4.80
2010,10,25,03,42,4.80
2010,10,25,03,43,4.80
2010,10,25,03,44,4.80
2010,10,25,03,45,4.80
2010,10,25,03,46,4.80
2010,10,25,03,47,4.80
2010,10,25,03,48,4.80
2010,10,25,03,49,4.80
2010,10,25,03,50,3.20
2010,10,25,03,51,3.20
2010,10,25,03,52,4.80
2010,10,25,03,53,3.20
2010,10,25,03,54,6.40
2010,10,25,03,55,6.40
2010,10,25,03,56,4.80
2010,10,25,03,57,4.80
2010,10,25,03,58,4.80
2010,10,25,03,59,4.80
2010,10,25,04,00,3.20
2010,10,25,04,01,1.60
2010,10,25,04,02,3.20
2010,10,25,04,03,3.20
2010,10,25,04,04,1.60
2010,10,25,04,05,1.60
2010,10,25,04,06,1.60
2010,10,25,04,07,3.20
2010,10,25,04,08,3.20
2010,10,25,04,09,3.20
2010,10,25,04,10,3.20
2010,10,25,04,11,1.60
2010,10,25,04,16,1.60
2010,10,25,04,17,3.20
2010,10,25,04,18,4.80
2010,10,25,04,19,4.80
2010,10,25,04,20,3.20
2010,10,25,04,21,4.80
2010,10,25,04,22,6.40
2010,10,25,04,23,4.80
2010,10,25,04,24,4.80
2010,10,25,04,25,3.20
2010,10,25,04,26,1.60
2010,10,25,04,27,3.20
2010,10,25,04,28,1.60
2010,10,25,04,29,1.60
2010,10,25,04,30,1.60
2010,10,25,04,31,3.20
2010,10,25,04,32,1.60
2010,10,25,04,33,3.20
2010,10,25,04,34,3.20
2010,10,25,04,35,1.60
2010,10,25,04,36,1.60
2010,10,25,04,37,1.60
2010,10,25,04,38,1.60
2010,10,25,04,39,1.60
2010,10,25,04,40,3.20
2010,10,25,04,41,1.60
2010,10,25,04,42,3.20
2010,10,25,04,43,3.20
2010,10,25,04,44,3.20
2010,10,25,04,45,6.40
2010,10,25,04,46,3.20
2010,10,25,04,47,4.80
2010,10,25,04,48,6.40
2010,10,25,04,49,4.80
2010,10,25,04,50,4.80
2010,10,25,04,51,3.20
2010,10,25,04,52,3.20
2010,10,25,04,53,4.80
2010,10,25,04,54,4.80
2010,10,25,04,55,4.80
2010,10,25,04,56,6.40
2010,10,25,04,57,4.80
2010,10,25,04,58,3.20
2010,10,25,04,59,6.40
2010,10,25,05,00,4.80
2010,10,25,05,01,6.40
2010,10,25,05,02,4.80
2010,10,25,05,03,4.80
2010,10,25,05,04,4.80
2010,10,25,05,05,1.60
2010,10,25,05,06,3.20
2010,10,25,05,07,4.80
2010,10,25,05,08,3.20
2010,10,25,05,09,3.20
2010,10,25,05,10,3.20
2010,10,25,05,11,3.20
2010,10,25,05,12,3.20
2010,10,25,05,13,3.20
2010,10,25,05,14,4.80
2010,10,25,05,15,3.20
2010,10,25,05,16,3.20
2010,10,25,05,17,1.60
2010,10,25,05,19,3.20
2010,10,25,05,20,6.40
2010,10,25,05,21,3.20
2010,10,25,05,22,4.80
2010,10,25,05,23,6.40
2010,10,25,05,24,3.20
2010,10,25,05,25,3.20
2010,10,25,05,26,3.20
2010,10,25,05,27,3.20
2010,10,25,05,28,1.60
2010,10,25,05,29,3.20
2010,10,25,05,33,1.60
2010,10,25,05,34,3.20
2010,10,25,05,35,6.40
2010,10,25,05,36,4.80
2010,10,25,05,37,4.80
2010,10,25,05,38,4.80
2010,10,25,05,39,4.80
2010,10,25,05,40,6.40
2010,10,25,05,41,8.10
2010,10,25,05,42,9.60
2010,10,25,05,43,14.50
2010,10,25,05,44,9.60
2010,10,25,05,45,11.30
2010,10,25,05,46,11.30
2010,10,25,05,47,4.80
2010,10,25,05,48,4.80
2010,10,25,05,49,9.60
2010,10,25,05,50,8.10
2010,10,25,05,51,8.10
2010,10,25,05,52,8.10
2010,10,25,05,53,11.30
2010,10,25,05,54,8.10
2010,10,25,05,55,3.20
2010,10,25,05,56,4.80
2010,10,25,05,57,4.80
2010,10,25,05,59,4.80
2010,10,25,06,00,1.60
2010,10,25,06,01,6.40
2010,10,25,06,02,8.10
2010,10,25,06,03,4.80
2010,10,25,06,04,4.80
2010,10,25,06,05,1.60
2010,10,25,06,07,1.60
2010,10,25,06,08,4.80
2010,10,25,06,09,8.10
2010,10,25,06,10,9.60
2010,10,25,06,11,11.30
2010,10,25,06,12,11.30
2010,10,25,06,13,9.60
2010,10,25,06,14,9.60
2010,10,25,06,15,6.40
2010,10,25,06,16,16.10
2010,10,25,06,17,11.30
2010,10,25,06,18,16.10
2010,10,25,06,19,14.50
2010,10,25,06,20,8.10
2010,10,25,06,21,16.10
2010,10,25,06,22,14.50
2010,10,25,06,23,12.90
2010,10,25,06,24,16.10
2010,10,25,06,25,9.60
2010,10,25,06,26,11.30
2010,10,25,06,27,11.30
2010,10,25,06,28,9.60
2010,10,25,06,29,6.40
2010,10,25,06,30,8.10
2010,10,25,06,31,8.10
2010,10,25,06,32,6.40
2010,10,25,06,33,8.10
2010,10,25,06,34,8.10
2010,10,25,06,35,9.60
2010,10,25,06,36,9.60
2010,10,25,06,37,11.30
2010,10,25,06,38,11.30
2010,10,25,06,39,8.10
2010,10,25,06,40,6.40
2010,10,25,06,41,8.10
2010,10,25,06,42,9.60
2010,10,25,06,43,14.50
2010,10,25,06,44,8.10
2010,10,25,06,45,4.80
2010,10,25,06,46,4.80
2010,10,25,06,47,3.20
2010,10,25,06,48,9.60
2010,10,25,06,49,9.60
2010,10,25,06,50,11.30
2010,10,25,06,51,16.10
2010,10,25,06,52,9.60
2010,10,25,06,53,6.40
2010,10,25,06,54,8.10
2010,10,25,06,55,8.10
2010,10,25,06,56,6.40
2010,10,25,06,57,9.60
2010,10,25,06,58,11.30
2010,10,25,06,59,16.10
2010,10,25,07,00,12.90
2010,10,25,07,01,11.30
2010,10,25,07,02,16.10
2010,10,25,07,03,16.10
2010,10,25,07,04,17.70
2010,10,25,07,05,16.10
2010,10,25,07,06,16.10
2010,10,25,07,07,12.90
2010,10,25,07,08,16.10
2010,10,25,07,09,17.70
2010,10,25,07,10,9.60
2010,10,25,07,11,11.30
2010,10,25,07,12,11.30
2010,10,25,07,13,11.30
2010,10,25,07,14,9.60
2010,10,25,07,15,16.10
2010,10,25,07,16,11.30
2010,10,25,07,17,9.60
2010,10,25,07,18,16.10
2010,10,25,07,19,11.30
2010,10,25,07,20,11.30
2010,10,25,07,21,17.70
2010,10,25,07,22,12.90
2010,10,25,07,23,11.30
2010,10,25,07,24,14.50
2010,10,25,07,25,12.90
2010,10,25,07,26,20.90
2010,10,25,07,27,16.10
2010,10,25,07,28,14.50
2010,10,25,07,29,8.10
2010,10,25,07,30,17.70
2010,10,25,07,31,16.10
2010,10,25,07,32,17.70
2010,10,25,07,33,17.70
2010,10,25,07,34,11.30
2010,10,25,07,35,12.90
2010,10,25,07,36,17.70
2010,10,25,07,37,9.60
2010,10,25,07,38,9.60
2010,10,25,07,39,4.80
2010,10,25,07,40,6.40
2010,10,25,07,41,9.60
2010,10,25,07,42,11.30
2010,10,25,07,43,3.20
2010,10,25,07,44,3.20
2010,10,25,07,45,16.10
2010,10,25,07,46,4.80
2010,10,25,07,47,6.40
2010,10,25,07,48,8.10
2010,10,25,07,49,3.20
2010,10,25,07,50,9.60
2010,10,25,07,51,20.90
2010,10,25,07,52,11.30
2010,10,25,07,53,8.10
2010,10,25,07,54,4.80
2010,10,25,07,55,11.30
2010,10,25,07,56,17.70
2010,10,25,07,57,20.90
2010,10,25,07,58,14.50
2010,10,25,07,59,9.60
2010,10,25,08,00,16.10
2010,10,25,08,01,6.40
2010,10,25,08,02,6.40
2010,10,25,08,03,6.40
2010,10,25,08,04,9.60
2010,10,25,08,05,6.40
2010,10,25,08,06,9.60
2010,10,25,08,07,4.80
2010,10,25,08,08,6.40
2010,10,25,08,09,16.10
2010,10,25,08,10,22.50
2010,10,25,08,11,11.30
2010,10,25,08,12,16.10
2010,10,25,08,13,20.90
2010,10,25,08,14,24.20
2010,10,25,08,15,22.50
2010,10,25,08,16,17.70
2010,10,25,08,17,20.90
2010,10,25,08,18,9.60
2010,10,25,08,19,17.70
2010,10,25,08,20,16.10
2010,10,25,08,21,17.70
2010,10,25,08,22,16.10
2010,10,25,08,23,16.10
2010,10,25,08,24,20.90
2010,10,25,08,25,20.90
2010,10,25,08,26,20.90
2010,10,25,08,27,17.70
2010,10,25,08,28,20.90
2010,10,25,08,29,11.30
2010,10,25,08,30,17.70
2010,10,25,08,31,19.30
2010,10,25,08,32,19.30
2010,10,25,08,33,24.20
2010,10,25,08,34,22.50
2010,10,25,08,35,20.90
2010,10,25,08,36,25.70
2010,10,25,08,37,20.90
2010,10,25,08,38,16.10
2010,10,25,08,39,11.30
2010,10,25,08,40,22.50
2010,10,25,08,41,20.90
2010,10,25,08,42,12.90
2010,10,25,08,43,20.90
2010,10,25,08,44,19.30
2010,10,25,08,45,17.70
2010,10,25,08,46,20.90
2010,10,25,08,47,17.70
2010,10,25,08,48,20.90
2010,10,25,08,49,16.10
2010,10,25,08,50,20.90
2010,10,25,08,51,17.70
2010,10,25,08,52,16.10
2010,10,25,08,53,22.50
2010,10,25,08,54,20.90
2010,10,25,08,55,20.90
2010,10,25,08,56,27.40
2010,10,25,08,57,32.20
2010,10,25,08,58,32.20
2010,10,25,08,59,32.20
2010,10,25,09,00,25.70
2010,10,25,09,01,22.50
2010,10,25,09,02,19.30
2010,10,25,09,03,17.70
2010,10,25,09,04,24.20
2010,10,25,09,05,29.00
2010,10,25,09,06,25.70
2010,10,25,09,07,25.70
2010,10,25,09,08,19.30
2010,10,25,09,09,19.30
2010,10,25,09,10,24.20
2010,10,25,09,11,25.70
2010,10,25,09,12,32.20
2010,10,25,09,13,27.40
2010,10,25,09,14,22.50
2010,10,25,09,15,20.90
2010,10,25,09,16,17.70
2010,10,25,09,17,16.10
2010,10,25,09,18,17.70
2010,10,25,09,19,22.50
2010,10,25,09,20,19.30
2010,10,25,09,21,14.50
2010,10,25,09,22,12.90
2010,10,25,09,23,19.30
2010,10,25,09,24,19.30
2010,10,25,09,25,11.30
2010,10,25,09,26,11.30
2010,10,25,09,27,19.30
2010,10,25,09,28,16.10
2010,10,25,09,29,22.50
2010,10,25,09,30,17.70
2010,10,25,09,31,20.90
2010,10,25,09,32,22.50
2010,10,25,09,33,19.30
2010,10,25,09,34,25.70
2010,10,25,09,35,22.50
2010,10,25,09,36,12.90
2010,10,25,09,37,17.70
2010,10,25,09,38,16.10
2010,10,25,09,39,19.30
2010,10,25,09,40,20.90
2010,10,25,09,41,17.70
2010,10,25,09,42,11.30
2010,10,25,09,43,9.60
2010,10,25,09,44,11.30
2010,10,25,09,45,16.10
2010,10,25,09,46,9.60
2010,10,25,09,47,20.90
2010,10,25,09,48,17.70
2010,10,25,09,49,16.10
2010,10,25,09,50,16.10
2010,10,25,09,51,11.30
2010,10,25,09,52,9.60
2010,10,25,09,53,11.30
2010,10,25,09,54,11.30
2010,10,25,09,55,14.50
2010,10,25,09,56,12.90
2010,10,25,09,57,11.30
2010,10,25,09,58,9.60
2010,10,25,09,59,6.40
2010,10,25,10,00,11.30
2010,10,25,10,01,20.90
2010,10,25,10,02,11.30
2010,10,25,10,03,14.50
2010,10,25,10,04,8.10
2010,10,25,10,05,11.30
2010,10,25,10,06,16.10
2010,10,25,10,07,17.70
2010,10,25,10,08,14.50
2010,10,25,10,09,19.30
2010,10,25,10,10,16.10
2010,10,25,10,11,20.90
2010,10,25,10,12,16.10
2010,10,25,10,13,12.90
2010,10,25,10,14,22.50
2010,10,25,10,15,16.10
2010,10,25,10,16,16.10
2010,10,25,10,17,17.70
2010,10,25,10,18,19.30
2010,10,25,10,19,16.10
2010,10,25,10,20,17.70
2010,10,25,10,21,11.30
2010,10,25,10,22,17.70
2010,10,25,10,23,22.50
2010,10,25,10,24,11.30
2010,10,25,10,25,22.50
2010,10,25,10,26,19.30
2010,10,25,10,27,22.50
2010,10,25,10,28,11.30
2010,10,25,10,29,20.90
2010,10,25,10,30,17.70
2010,10,25,10,31,20.90
2010,10,25,10,32,24.20
2010,10,25,10,33,20.90
2010,10,25,10,34,11.30
2010,10,25,10,35,16.10
2010,10,25,10,36,22.50
2010,10,25,10,37,12.90
2010,10,25,10,38,17.70
2010,10,25,10,39,14.50
2010,10,25,10,40,16.10
2010,10,25,10,41,17.70
2010,10,25,10,42,17.70
2010,10,25,10,43,20.90
2010,10,25,10,44,22.50
2010,10,25,10,45,16.10
2010,10,25,10,46,17.70
2010,10,25,10,47,9.60
2010,10,25,10,48,19.30
2010,10,25,10,49,22.50
2010,10,25,10,50,19.30
2010,10,25,10,51,16.10
2010,10,25,10,52,20.90
2010,10,25,10,53,17.70
2010,10,25,10,54,22.50
2010,10,25,10,55,20.90
2010,10,25,10,56,16.10
2010,10,25,10,57,17.70
2010,10,25,10,58,11.30
2010,10,25,10,59,16.10
2010,10,25,11,00,19.30
2010,10,25,11,01,16.10
2010,10,25,11,02,14.50
2010,10,25,11,03,20.90
2010,10,25,11,04,16.10
2010,10,25,11,05,19.30
2010,10,25,11,06,9.60
2010,10,25,11,07,11.30
2010,10,25,11,08,17.70
2010,10,25,11,09,25.70
2010,10,25,11,10,19.30
2010,10,25,11,11,14.50
2010,10,25,11,12,16.10
2010,10,25,11,13,17.70
2010,10,25,11,14,24.20
2010,10,25,11,15,20.90
2010,10,25,11,16,14.50
2010,10,25,11,17,17.70
2010,10,25,11,18,22.50
2010,10,25,11,19,16.10
2010,10,25,11,20,16.10
2010,10,25,11,21,17.70
2010,10,25,11,22,20.90
2010,10,25,11,23,17.70
2010,10,25,11,24,20.90
2010,10,25,11,25,16.10
2010,10,25,11,26,20.90
2010,10,25,11,27,14.50
2010,10,25,11,28,17.70
2010,10,25,11,29,16.10
2010,10,25,11,30,19.30
2010,10,25,11,31,19.30
2010,10,25,11,32,11.30
2010,10,25,11,33,11.30
2010,10,25,11,34,11.30
2010,10,25,11,35,16.10
2010,10,25,11,36,14.50
2010,10,25,11,37,19.30
2010,10,25,11,38,20.90
2010,10,25,11,39,22.50
2010,10,25,11,40,19.30
2010,10,25,11,41,27.40
2010,10,25,11,42,16.10
2010,10,25,11,43,22.50
2010,10,25,11,44,22.50
2010,10,25,11,45,22.50
2010,10,25,11,46,14.50
2010,10,25,11,47,17.70
2010,10,25,11,48,20.90
2010,10,25,11,49,25.70
2010,10,25,11,50,19.30
2010,10,25,11,51,20.90
2010,10,25,11,52,24.20
2010,10,25,11,53,16.10
2010,10,25,11,54,17.70
2010,10,25,11,55,14.50
2010,10,25,11,56,16.10
2010,10,25,11,57,17.70
2010,10,25,11,58,16.10
2010,10,25,11,59,14.50
2010,10,25,12,00,9.60
2010,10,25,12,01,17.70
2010,10,25,12,02,14.50
2010,10,25,12,03,9.60
2010,10,25,12,04,17.70
2010,10,25,12,05,19.30
2010,10,25,12,06,17.70
2010,10,25,12,07,22.50
2010,10,25,12,08,8.10
2010,10,25,12,09,12.90
2010,10,25,12,10,17.70
2010,10,25,12,11,9.60
2010,10,25,12,12,8.10
2010,10,25,12,13,17.70
2010,10,25,12,14,19.30
2010,10,25,12,15,11.30
2010,10,25,12,16,11.30
2010,10,25,12,17,16.10
2010,10,25,12,18,9.60
2010,10,25,12,19,24.20
2010,10,25,12,20,24.20
2010,10,25,12,21,16.10
2010,10,25,12,22,20.90
2010,10,25,12,23,19.30
2010,10,25,12,24,11.30
2010,10,25,12,25,11.30
2010,10,25,12,26,16.10
2010,10,25,12,27,22.50
2010,10,25,12,28,22.50
2010,10,25,12,29,16.10
2010,10,25,12,30,19.30
2010,10,25,12,31,14.50
2010,10,25,12,32,11.30
2010,10,25,12,33,17.70
2010,10,25,12,34,11.30
2010,10,25,12,35,17.70
2010,10,25,12,36,16.10
2010,10,25,12,37,20.90
2010,10,25,12,38,9.60
2010,10,25,12,39,12.90
2010,10,25,12,40,16.10
2010,10,25,12,41,16.10
2010,10,25,12,42,16.10
2010,10,25,12,43,6.40
2010,10,25,12,44,16.10
2010,10,25,12,45,17.70
2010,10,25,12,46,16.10
2010,10,25,12,47,16.10
2010,10,25,12,48,16.10
2010,10,25,12,49,16.10
2010,10,25,12,50,14.50
2010,10,25,12,51,22.50
2010,10,25,12,52,20.90
2010,10,25,12,53,9.60
2010,10,25,12,54,14.50
2010,10,25,12,55,19.30
2010,10,25,12,56,19.30
2010,10,25,12,57,17.70
2010,10,25,12,58,16.10
2010,10,25,12,59,14.50
2010,10,25,13,00,14.50
2010,10,25,13,01,9.60
2010,10,25,13,02,17.70
2010,10,25,13,03,9.60
2010,10,25,13,04,20.90
2010,10,25,13,05,17.70
2010,10,25,13,06,25.70
2010,10,25,13,07,24.20
2010,10,25,13,08,19.30
2010,10,25,13,09,17.70
2010,10,25,13,10,16.10
2010,10,25,13,11,16.10
2010,10,25,13,12,11.30
2010,10,25,13,13,25.70
2010,10,25,13,14,17.70
2010,10,25,13,15,11.30
2010,10,25,13,16,16.10
2010,10,25,13,17,14.50
2010,10,25,13,18,16.10
2010,10,25,13,19,14.50
2010,10,25,13,20,19.30
2010,10,25,13,21,17.70
2010,10,25,13,22,12.90
2010,10,25,13,23,19.30
2010,10,25,13,24,19.30
2010,10,25,13,25,19.30
2010,10,25,13,26,16.10
2010,10,25,13,27,19.30
2010,10,25,13,28,19.30
2010,10,25,13,29,17.70
2010,10,25,13,30,20.90
2010,10,25,13,31,22.50
2010,10,25,13,32,24.20
2010,10,25,13,33,11.30
2010,10,25,13,34,16.10
2010,10,25,13,35,22.50
2010,10,25,13,36,14.50
2010,10,25,13,37,22.50
2010,10,25,13,38,16.10
2010,10,25,13,39,16.10
2010,10,25,13,40,19.30
2010,10,25,13,41,19.30
2010,10,25,13,42,17.70
2010,10,25,13,43,20.90
2010,10,25,13,44,27.40
2010,10,25,13,45,9.60
2010,10,25,13,46,16.10
2010,10,25,13,47,17.70
2010,10,25,13,48,19.30
2010,10,25,13,49,22.50
2010,10,25,13,50,19.30
2010,10,25,13,51,19.30
2010,10,25,13,52,11.30
2010,10,25,13,53,17.70
2010,10,25,13,54,14.50
2010,10,25,13,55,16.10
2010,10,25,13,56,20.90
2010,10,25,13,57,24.20
2010,10,25,13,58,14.50
2010,10,25,13,59,20.90
2010,10,25,14,00,16.10
2010,10,25,14,01,17.70
2010,10,25,14,02,11.30
2010,10,25,14,03,12.90
2010,10,25,14,04,20.90
2010,10,25,14,05,8.10
2010,10,25,14,06,20.90
2010,10,25,14,07,16.10
2010,10,25,14,08,25.70
2010,10,25,14,09,19.30
2010,10,25,14,10,17.70
2010,10,25,14,11,22.50
2010,10,25,14,12,16.10
2010,10,25,14,13,16.10
2010,10,25,14,14,14.50
2010,10,25,14,15,20.90
2010,10,25,14,16,22.50
2010,10,25,14,17,22.50
2010,10,25,14,18,19.30
2010,10,25,14,19,11.30
2010,10,25,14,20,19.30
2010,10,25,14,21,19.30
2010,10,25,14,22,12.90
2010,10,25,14,23,24.20
2010,10,25,14,24,19.30
2010,10,25,14,25,20.90
2010,10,25,14,26,17.70
2010,10,25,14,27,16.10
2010,10,25,14,28,8.10
2010,10,25,14,29,11.30
2010,10,25,14,30,17.70
2010,10,25,14,31,11.30
2010,10,25,14,32,19.30
2010,10,25,14,33,11.30
2010,10,25,14,34,19.30
2010,10,25,14,35,22.50
2010,10,25,14,36,25.70
2010,10,25,14,37,20.90
2010,10,25,14,38,29.00
2010,10,25,14,39,22.50
2010,10,25,14,40,24.20
2010,10,25,14,41,25.70
2010,10,25,14,42,20.90
2010,10,25,14,43,24.20
2010,10,25,14,44,27.40
2010,10,25,14,45,29.00
2010,10,25,14,46,24.20
2010,10,25,14,47,22.50
2010,10,25,14,48,27.40
2010,10,25,14,49,32.20
2010,10,25,14,50,24.20
2010,10,25,14,51,29.00
2010,10,25,14,52,24.20
2010,10,25,14,53,27.40
2010,10,25,14,54,25.70
2010,10,25,14,55,30.60
2010,10,25,14,56,20.90
2010,10,25,14,57,20.90
2010,10,25,14,58,24.20
2010,10,25,14,59,22.50
2010,10,25,15,00,29.00
2010,10,25,15,01,24.20
2010,10,25,15,02,22.50
2010,10,25,15,03,20.90
2010,10,25,15,04,25.70
2010,10,25,15,05,30.60
2010,10,25,15,06,20.90
2010,10,25,15,07,22.50
2010,10,25,15,08,16.10
2010,10,25,15,09,17.70
2010,10,25,15,10,24.20
2010,10,25,15,11,22.50
2010,10,25,15,12,14.50
2010,10,25,15,13,20.90
2010,10,25,15,14,19.30
2010,10,25,15,15,24.20
2010,10,25,15,16,29.00
2010,10,25,15,17,25.70
2010,10,25,15,18,25.70
2010,10,25,15,19,27.40
2010,10,25,15,20,20.90
2010,10,25,15,21,17.70
2010,10,25,15,22,25.70
2010,10,25,15,23,22.50
2010,10,25,15,24,29.00
2010,10,25,15,25,19.30
2010,10,25,15,26,29.00
2010,10,25,15,27,20.90
2010,10,25,15,28,24.20
2010,10,25,15,29,20.90
2010,10,25,15,30,24.20
2010,10,25,15,31,24.20
2010,10,25,15,32,24.20
2010,10,25,15,33,22.50
2010,10,25,15,34,27.40
2010,10,25,15,35,24.20
2010,10,25,15,36,22.50
2010,10,25,15,37,35.40
2010,10,25,15,38,22.50
2010,10,25,15,39,24.20
2010,10,25,15,40,25.70
2010,10,25,15,41,29.00
2010,10,25,15,42,24.20
2010,10,25,15,43,22.50
2010,10,25,15,44,22.50
2010,10,25,15,45,27.40
2010,10,25,15,46,20.90
2010,10,25,15,47,25.70
2010,10,25,15,48,27.40
2010,10,25,15,49,24.20
2010,10,25,15,50,29.00
2010,10,25,15,51,29.00
2010,10,25,15,52,24.20
2010,10,25,15,53,20.90
2010,10,25,15,54,27.40
2010,10,25,15,55,20.90
2010,10,25,15,56,29.00
2010,10,25,15,57,24.20
2010,10,25,15,58,30.60
2010,10,25,15,59,24.20
2010,10,25,16,00,19.30
2010,10,25,16,01,29.00
2010,10,25,16,02,22.50
2010,10,25,16,03,32.20
2010,10,25,16,04,24.20
2010,10,25,16,05,30.60
2010,10,25,16,06,24.20
2010,10,25,16,07,30.60
2010,10,25,16,08,22.50
2010,10,25,16,09,32.20
2010,10,25,16,10,27.40
2010,10,25,16,11,22.50
2010,10,25,16,12,25.70
2010,10,25,16,13,27.40
2010,10,25,16,14,24.20
2010,10,25,16,15,27.40
2010,10,25,16,16,25.70
2010,10,25,16,17,29.00
2010,10,25,16,18,27.40
2010,10,25,16,19,30.60
2010,10,25,16,20,24.20
2010,10,25,16,21,25.70
2010,10,25,16,22,32.20
2010,10,25,16,23,27.40
2010,10,25,16,24,25.70
2010,10,25,16,25,33.80
2010,10,25,16,26,30.60
2010,10,25,16,27,33.80
2010,10,25,16,28,25.70
2010,10,25,16,29,25.70
2010,10,25,16,30,30.60
2010,10,25,16,31,30.60
2010,10,25,16,32,24.20
2010,10,25,16,33,27.40
2010,10,25,16,34,27.40
2010,10,25,16,35,24.20
2010,10,25,16,36,22.50
2010,10,25,16,37,19.30
2010,10,25,16,38,22.50
2010,10,25,16,39,20.90
2010,10,25,16,40,24.20
2010,10,25,16,41,22.50
2010,10,25,16,42,27.40
2010,10,25,16,43,24.20
2010,10,25,16,44,20.90
2010,10,25,16,45,22.50
2010,10,25,16,46,20.90
2010,10,25,16,47,22.50
2010,10,25,16,48,22.50
2010,10,25,16,49,16.10
2010,10,25,16,50,25.70
2010,10,25,16,51,24.20
2010,10,25,16,52,25.70
2010,10,25,16,53,17.70
2010,10,25,16,54,24.20
2010,10,25,16,55,22.50
2010,10,25,16,56,20.90
2010,10,25,16,57,24.20
2010,10,25,16,58,20.90
2010,10,25,16,59,25.70
2010,10,25,17,00,20.90
2010,10,25,17,01,20.90
2010,10,25,17,02,17.70
2010,10,25,17,03,27.40
2010,10,25,17,04,27.40
2010,10,25,17,05,16.10
2010,10,25,17,06,19.30
2010,10,25,17,07,16.10
2010,10,25,17,08,30.60
2010,10,25,17,09,19.30
2010,10,25,17,10,22.50
2010,10,25,17,11,22.50
2010,10,25,17,12,24.20
2010,10,25,17,13,20.90
2010,10,25,17,14,20.90
2010,10,25,17,15,11.30
2010,10,25,17,16,20.90
2010,10,25,17,17,20.90
2010,10,25,17,18,22.50
2010,10,25,17,19,25.70
2010,10,25,17,20,17.70
2010,10,25,17,21,14.50
2010,10,25,17,22,16.10
2010,10,25,17,23,17.70
2010,10,25,17,24,25.70
2010,10,25,17,25,20.90
2010,10,25,17,26,24.20
2010,10,25,17,27,22.50
2010,10,25,17,28,16.10
2010,10,25,17,29,12.90
2010,10,25,17,30,24.20
2010,10,25,17,31,17.70
2010,10,25,17,32,17.70
2010,10,25,17,33,20.90
2010,10,25,17,34,19.30
2010,10,25,17,35,17.70
2010,10,25,17,36,17.70
2010,10,25,17,37,14.50
2010,10,25,17,38,17.70
2010,10,25,17,39,24.20
2010,10,25,17,40,17.70
2010,10,25,17,41,19.30
2010,10,25,17,42,27.40
2010,10,25,17,43,27.40
2010,10,25,17,44,22.50
2010,10,25,17,45,25.70
2010,10,25,17,46,16.10
2010,10,25,17,47,24.20
2010,10,25,17,48,17.70
2010,10,25,17,49,19.30
2010,10,25,17,50,16.10
2010,10,25,17,51,17.70
2010,10,25,17,52,16.10
2010,10,25,17,53,19.30
2010,10,25,17,54,24.20
2010,10,25,17,55,25.70
2010,10,25,17,56,24.20
2010,10,25,17,57,27.40
2010,10,25,17,58,30.60
2010,10,25,17,59,32.20
2010,10,25,18,00,30.60
2010,10,25,18,01,22.50
2010,10,25,18,02,14.50
2010,10,25,18,03,16.10
2010,10,25,18,04,24.20
2010,10,25,18,05,16.10
2010,10,25,18,06,19.30
2010,10,25,18,07,20.90
2010,10,25,18,08,32.20
2010,10,25,18,09,19.30
2010,10,25,18,10,25.70
2010,10,25,18,11,24.20
2010,10,25,18,12,22.50